Weather History for Lebanon, NH

Change the Weather History Date:

Saturday, May 11, 2013

  Actual Average Record
Temperature  
Mean Temperature 63 °F -  
Max Temperature 69 °F 68 °F 87 °F (1953)
Min Temperature 57 °F 41 °F 26 °F (1947)
Degree Days  
Heating Degree Days 2    
Growing Degree Days 13 (Base 50)    
Moisture  
Dew Point 58 °F    
Average Humidity 84    
Maximum Humidity 94    
Minimum Humidity 73    
Precipitation  
Precipitation 1.02 in - - ()
Sea Level Pressure  
Sea Level Pressure 29.69 in    
Wind  
Wind Speed 7 mph (SSW)    
Max Wind Speed 16 mph    
Max Gust Speed 24 mph    
Visibility 7 miles    
Events Rain    
Averages and records for this station are not official NWS values.
T = Trace of Precipitation, MM = Missing Value Source: NWS Daily Summary

Daily Weather History Graph

Daily Weather History Graph

Search for Another Location

Airport:

Trip Planner

Search our weather history database for the weather conditions in past years. The results will help you decide how hot, cold, wet, or windy it might be!

Date:

Astronomy

May. 11, 2013 Rise Set
Actual Time 5:28 AM EDT 8:03 PM EDT
Civil Twilight 4:55 AM EDT 8:36 PM EDT
Nautical Twilight 4:15 AM EDT 9:17 PM EDT
Astronomical Twilight 3:28 AM EDT 10:03 PM EDT
Moon 6:33 AM EDT (5/11) 9:42 PM EDT (5/11)
Length of Visible Light 15h 40m
Length of Day
14h 34m
Waxing Crescent, 3% of the Moon is Illuminated
May 11
Waxing Crescent
May 18
First Quarter
May 25
Full
May 31
Last Quarter
Jun 8
New

Hourly Weather History & Observations

Time (EDT) Temp. Dew Point Humidity Pressure Visibility Wind Dir Wind Speed Gust Speed Precip Events Conditions
12:53 AM 57.9 °F 55.0 °F 90% 29.81 in 8.0 mi Calm Calm - N/A   Partly Cloudy
1:53 AM 57.9 °F 55.9 °F 93% 29.80 in 8.0 mi Calm Calm - 0.01 in Rain Light Rain
2:53 AM 59.0 °F 57.0 °F 93% 29.77 in 7.0 mi Calm Calm - 0.01 in   Overcast
3:53 AM 57.9 °F 55.0 °F 90% 29.75 in 10.0 mi South 5.8 mph - N/A   Scattered Clouds
4:53 AM 59.0 °F 55.0 °F 87% 29.74 in 10.0 mi South 5.8 mph - N/A   Overcast
5:53 AM 59.0 °F 55.9 °F 90% 29.74 in 3.0 mi Calm Calm - 0.03 in Rain Light Rain
6:53 AM 59.0 °F 55.9 °F 90% 29.73 in 4.0 mi Calm Calm - 0.05 in Rain Light Rain
7:53 AM 61.0 °F 57.0 °F 87% 29.72 in 10.0 mi SSW 6.9 mph - 0.01 in   Overcast
8:40 AM 62.6 °F 57.2 °F 82% 29.73 in 10.0 mi South 12.7 mph - N/A   Overcast
8:53 AM 62.1 °F 57.0 °F 84% 29.71 in 10.0 mi South 12.7 mph - N/A   Overcast
9:00 AM 62.6 °F 57.2 °F 82% 29.73 in 5.0 mi South 13.8 mph - N/A   Haze
9:53 AM 64.0 °F 57.0 °F 78% 29.70 in 5.0 mi South 15.0 mph - N/A   Haze
10:02 AM 64.4 °F 57.2 °F 77% 29.71 in 5.0 mi South 12.7 mph - N/A   Haze
10:53 AM 66.0 °F 57.0 °F 73% 29.69 in 5.0 mi South 13.8 mph - N/A   Haze
11:00 AM 64.4 °F 57.2 °F 77% 29.71 in 10.0 mi South 12.7 mph - N/A   Overcast
11:53 AM 66.0 °F 57.9 °F 75% 29.69 in 10.0 mi South 10.4 mph 20.7 mph N/A   Overcast
12:05 PM 64.4 °F 57.2 °F 77% 29.70 in 7.0 mi SSW 11.5 mph - N/A   Overcast
12:53 PM 66.0 °F 57.9 °F 75% 29.67 in 10.0 mi South 11.5 mph - N/A   Overcast
1:33 PM 66.2 °F 57.2 °F 73% 29.68 in 10.0 mi South 12.7 mph - N/A   Overcast
1:53 PM 66.0 °F 59.0 °F 78% 29.66 in 8.0 mi SSW 11.5 mph - 0.00 in Rain Light Rain
2:09 PM 66.2 °F 59.0 °F 78% 29.67 in 10.0 mi SSW 12.7 mph - 0.00 in   Overcast
2:53 PM 68.0 °F 59.0 °F 73% 29.65 in 10.0 mi SSW 11.5 mph 24.2 mph 0.00 in   Mostly Cloudy
3:08 PM 69.8 °F 60.8 °F 73% 29.66 in 10.0 mi South 13.8 mph - N/A   Mostly Cloudy
3:31 PM 69.8 °F 60.8 °F 73% 29.65 in 10.0 mi South 12.7 mph 20.7 mph N/A   Overcast
3:45 PM 68.0 °F 59.0 °F 73% 29.65 in 10.0 mi SSW 15.0 mph 21.9 mph N/A   Overcast
3:53 PM 68.0 °F 59.0 °F 73% 29.62 in 10.0 mi South 11.5 mph 19.6 mph N/A   Overcast
4:53 PM 68.0 °F 59.0 °F 73% 29.62 in 10.0 mi South 16.1 mph 21.9 mph 0.00 in   Scattered Clouds
5:53 PM 66.9 °F 59.0 °F 76% 29.62 in 10.0 mi South 12.7 mph 21.9 mph N/A   Clear
6:53 PM 64.9 °F 59.0 °F 81% 29.65 in 4.0 mi South 13.8 mph - 0.01 in Rain Light Rain
6:58 PM 64.4 °F 60.8 °F 88% 29.66 in 1.8 mi South 15.0 mph - 0.05 in Rain Rain
7:14 PM 62.6 °F 60.8 °F 94% 29.67 in 1.2 mi South 10.4 mph - 0.23 in Rain Heavy Rain
7:30 PM 62.6 °F 60.8 °F 94% 29.67 in 3.0 mi SSW 5.8 mph - 0.43 in Rain Heavy Rain
7:41 PM 62.6 °F 60.8 °F 94% 29.67 in 3.0 mi SW 5.8 mph - 0.49 in Rain Light Rain
7:51 PM 62.6 °F 60.8 °F 94% 29.67 in 3.0 mi SW 5.8 mph - 0.55 in Rain Light Rain
7:53 PM 63.0 °F 60.1 °F 90% 29.66 in 2.0 mi SW 8.1 mph - 0.56 in Rain Rain
7:55 PM 62.6 °F 60.8 °F 94% 29.67 in 1.5 mi WSW 3.5 mph - 0.00 in Rain Light Rain
7:59 PM 62.6 °F 60.8 °F 94% 29.67 in 3.0 mi WSW 5.8 mph - 0.00 in Rain Light Rain
8:14 PM 62.6 °F 60.8 °F 94% 29.68 in 2.5 mi SSW 10.4 mph - 0.07 in Rain Heavy Rain
8:18 PM 62.6 °F 60.8 °F 94% 29.68 in 1.5 mi SSW 12.7 mph - 0.15 in Rain Heavy Rain
8:26 PM 62.6 °F 60.8 °F 94% 29.69 in 1.5 mi SSW 11.5 mph - 0.24 in Rain Rain
8:40 PM 62.6 °F 57.2 °F 82% 29.68 in 4.0 mi SW 5.8 mph - 0.34 in Rain Light Rain
8:53 PM 62.1 °F 57.9 °F 86% 29.67 in 10.0 mi South 5.8 mph - 0.34 in   Scattered Clouds
9:53 PM 61.0 °F 57.9 °F 90% 29.66 in 10.0 mi South 4.6 mph - N/A   Overcast
10:53 PM 60.1 °F 57.9 °F 93% 29.66 in 9.0 mi Calm Calm - N/A   Overcast
11:53 PM 60.1 °F 57.0 °F 90% 29.66 in 7.0 mi Calm Calm - N/A   Overcast